KJ6HT Weather Reports


time (UTC)temp
C
wind
direction
speed
KPH
gust
KPH
rain 1hr
cm
rain 24hr
cm
rain mn
cm
humidity
%
barometer
mb
20260510073056 15 293 0.0 0.0 0.00 0.00 0.00 88 1011.7
20260510071558 16 293 0.0 0.0 0.00 0.00 0.00 87 1011.8
20260510070051 16 293 0.0 0.0 0.00 0.00 0.00 87 1011.8
20260510064551 16 292 0.0 0.0 0.00 0.00 0.00 87 1011.8
20260510063051 16 292 0.0 0.0 0.00 0.00 0.00 86 1011.8
20260510061553 16 292 0.0 0.0 0.00 0.00 0.00 85 1011.8
20260510060049 16 292 0.0 0.0 0.00 0.00 0.00 84 1011.8
20260510054550 17 292 0.0 1.6 0.00 0.00 0.00 83 1011.8
20260510053048 17 293 0.0 1.6 0.00 0.00 0.00 83 1011.8
20260510051547 17 292 0.0 3.2 0.00 0.00 0.00 82 1011.7
20260510050046 18 236 0.0 1.6 0.00 0.00 0.00 81 1011.6
20260510044549 18 245 0.0 3.2 0.00 0.00 0.00 80 1011.5
20260510043053 18 290 1.6 4.8 0.00 0.00 0.00 78 1011.3
20260510041545 19 308 0.0 1.6 0.00 0.00 0.00 76 1011.1
20260510040044 19 285 1.6 8.0 0.00 0.00 0.00 75 1010.9
20260510034543 20 167 0.0 3.2 0.00 0.00 0.00 73 1010.8
20260510033055 20 243 1.6 9.7 0.00 0.00 0.00 72 1010.5
20260510031548 21 285 1.6 6.4 0.00 0.00 0.00 71 1010.4
20260510030041 21 302 1.6 8.0 0.00 0.00 0.00 69 1010.1
20260510024545 22 327 3.2 14.5 0.00 0.00 0.00 67 1009.9
20260510023040 22 259 4.8 14.5 0.00 0.00 0.00 65 1009.6
20260510021539 23 249 3.2 17.7 0.00 0.00 0.00 62 1009.5
20260510020039 23 304 3.2 12.9 0.00 0.00 0.00 60 1009.3
20260510014537 24 294 8.0 16.1 0.00 0.00 0.00 58 1009.2
20260510013037 25 255 6.4 19.3 0.00 0.00 0.00 56 1009.1
20260510011546 26 294 6.4 16.1 0.00 0.00 0.00 54 1009.0
20260510010035 26 290 6.4 20.9 0.00 0.00 0.00 50 1009.0
20260510004534 27 237 9.7 20.9 0.00 0.00 0.00 49 1008.9
20260510003057 27 314 6.4 20.9 0.00 0.00 0.00 47 1008.9
20260510001532 28 298 8.0 20.9 0.00 0.00 0.00 46 1008.8
20260510000030 28 290 8.0 25.7 0.00 0.00 0.00 45 1008.9
20260509234530 28 249 8.0 30.6 0.00 0.00 0.00 45 1008.8
20260509233030 28 308 11.3 24.1 0.00 0.00 0.00 44 1008.8
20260509231540 29 246 6.4 24.1 0.00 0.00 0.00 43 1008.9
20260509230033 30 248 6.4 19.3 0.00 0.00 0.00 42 1009.0
20260509224526 30 267 6.4 19.3 0.00 0.00 0.00 41 1009.1
20260509223028 30 307 6.4 20.9 0.00 0.00 0.00 42 1009.1
20260509221525 30 295 4.8 19.3 0.00 0.00 0.00 41 1009.2
20260509220022 30 257 4.8 20.9 0.00 0.00 0.00 42 1009.4
20260509214521 30 296 8.0 17.7 0.00 0.00 0.00 41 1009.6
20260509213021 30 297 6.4 25.7 0.00 0.00 0.00 43 1009.8
20260509211516 30 323 4.8 16.1 0.00 0.00 0.00 42 1010.0
20260509210021 30 270 6.4 14.5 0.00 0.00 0.00 44 1010.2
20260509204512 30 279 4.8 14.5 0.00 0.00 0.00 47 1010.3
20260509203012 29 262 3.2 14.5 0.00 0.00 0.00 46 1010.5
20260509201508 29 225 4.8 12.9 0.00 0.00 0.00 46 1010.6
20260509200004 28 211 3.2 11.3 0.00 0.00 0.00 46 1010.8
20260509194558 27 242 6.4 17.7 0.00 0.00 0.00 45 1011.0
20260509193054 26 281 4.8 12.9 0.00 0.00 0.00 50 1011.2
20260509191552 26 245 8.0 17.7 0.00 0.00 0.00 49 1011.4
20260509190050 26 232 4.8 9.7 0.00 0.00 0.00 52 1011.5
20260509184546 25 219 4.8 12.9 0.00 0.00 0.00 56 1011.7
20260509183102 24 260 3.2 9.7 0.00 0.00 0.00 62 1011.7
20260509181546 23 307 3.2 11.3 0.00 0.00 0.00 63 1011.8
20260509180036 21 292 4.8 16.1 0.00 0.00 0.00 67 1011.9
20260509174536 21 301 4.8 9.7 0.00 0.00 0.00 69 1012.0
20260509173030 21 257 0.0 4.8 0.00 0.00 0.00 74 1012.2
20260509171527 19 293 3.2 8.0 0.00 0.00 0.00 79 1012.3
20260509170026 18 297 1.6 8.0 0.00 0.00 0.00 81 1012.3
20260509164522 18 217 0.0 8.0 0.00 0.00 0.00 86 1012.3
20260509163028 16 124 1.6 4.8 0.00 0.00 0.00 91 1012.4
20260509161515 15 31 1.6 6.4 0.00 0.00 0.00 93 1012.6
20260509160014 15 266 1.6 4.8 0.00 0.00 0.00 94 1012.7
20260509154512 15 284 0.0 1.6 0.00 0.00 0.00 94 1012.6
20260509153011 15 11 0.0 1.6 0.00 0.00 0.00 94 1012.6
20260509151510 15 129 0.0 1.6 0.00 0.00 0.00 94 1012.7
20260509150014 15 127 0.0 1.6 0.00 0.00 0.00 94 1012.8
20260509144520 14 285 0.0 1.6 0.00 0.00 0.00 94 1012.8
20260509143007 14 257 0.0 1.6 0.00 0.00 0.00 94 1012.7
20260509141507 14 257 0.0 1.6 0.00 0.00 0.00 94 1012.6
20260509140007 14 259 0.0 1.6 0.00 0.00 0.00 94 1012.6
20260509134506 14 243 0.0 3.2 0.00 0.00 0.00 94 1012.5
20260509133005 14 232 0.0 0.0 0.00 0.00 0.00 94 1012.4
20260509131508 14 232 0.0 1.6 0.00 0.00 0.00 94 1012.2
20260509130007 14 276 0.0 1.6 0.00 0.00 0.00 94 1012.1
20260509124503 14 278 0.0 3.2 0.00 0.00 0.00 94 1012.0
20260509123000 13 286 0.0 4.8 0.00 0.00 0.00 94 1012.0
20260509121605 13 294 1.6 3.2 0.00 0.00 0.00 94 1011.9
20260509120101 13 283 0.0 4.8 0.00 0.00 0.00 93 1012.0
20260509114602 13 281 0.0 1.6 0.00 0.00 0.00 93 1012.0
20260509113058 14 308 0.0 4.8 0.00 0.00 0.00 93 1011.8
20260509111557 14 283 0.0 3.2 0.00 0.00 0.00 93 1011.9
20260509110056 14 300 0.0 3.2 0.00 0.00 0.00 93 1011.9
20260509104555 14 345 0.0 1.6 0.00 0.00 0.00 93 1012.0
20260509103054 13 218 0.0 1.6 0.00 0.00 0.00 93 1012.1
20260509101556 13 218 0.0 0.0 0.00 0.00 0.00 92 1012.1
20260509100051 13 218 0.0 0.0 0.00 0.00 0.00 92 1012.1
20260509094549 13 218 0.0 0.0 0.00 0.00 0.00 92 1012.2
20260509093054 14 218 0.0 0.0 0.00 0.00 0.00 92 1012.4
20260509091545 14 218 0.0 0.0 0.00 0.00 0.00 91 1012.5
20260509090043 14 218 0.0 0.0 0.00 0.00 0.00 91 1012.5
20260509084550 14 218 0.0 0.0 0.00 0.00 0.00 90 1012.7
20260509083039 15 218 0.0 0.0 0.00 0.00 0.00 91 1012.6
20260509081541 15 218 0.0 0.0 0.00 0.00 0.00 91 1012.8
20260509080049 14 218 0.0 0.0 0.00 0.00 0.00 91 1012.9
20260509074537 14 218 0.0 0.0 0.00 0.00 0.00 90 1012.9